FW6626 Weather Reports


Display with metric or nautical units.
time (UTC)temp
F
wind
direction
speed
MPH
gust
MPH
rain 1hr
in
rain 24hr
in
rain mn
in
humidity
%
barometer
mb
20260508230053 68 275 7.0 14.0 0.00 0.00 0.00 75 1014.6
20260508224557 67 291 6.0 13.0 0.00 0.00 0.00 76 1014.8
20260508223051 68 261 7.0 14.0 0.00 0.00 0.00 75 1014.9
20260508221554 67 256 8.0 15.0 0.00 0.00 0.00 75 1015.0
20260508220055 67 248 8.0 18.0 0.00 0.00 0.00 76 1015.2
20260508214556 68 279 5.0 16.0 0.00 0.00 0.00 74 1015.2
20260508213054 69 306 6.0 15.0 0.00 0.00 0.00 74 1015.2
20260508211556 68 293 8.0 14.0 0.00 0.00 0.00 74 1015.2
20260508210056 69 248 6.0 14.0 0.00 0.00 0.00 73 1015.2
20260508204556 68 271 7.0 15.0 0.00 0.00 0.00 74 1015.3
20260508203051 68 288 7.0 15.0 0.00 0.00 0.00 76 1015.2
20260508201555 69 265 6.0 14.0 0.00 0.00 0.00 75 1015.4
20260508200117 69 291 7.0 13.0 0.00 0.00 0.00 74 1015.4
20260508194550 69 252 5.0 11.0 0.00 0.00 0.00 74 1015.6
20260508193132 69 263 5.0 12.0 0.00 0.00 0.00 74 1015.6
20260508191603 68 284 6.0 16.0 0.00 0.00 0.00 75 1016.0
20260508190054 69 281 6.0 11.0 0.00 0.00 0.00 73 1015.9
20260508184604 69 281 7.0 11.0 0.00 0.00 0.00 74 1016.1
20260508183113 69 262 4.0 9.0 0.00 0.00 0.00 72 1016.2
20260508181605 69 269 1.0 8.0 0.00 0.00 0.00 74 1016.3
20260508180056 73 178 1.0 5.0 0.00 0.00 0.00 67 1016.5
20260508174553 71 78 3.0 7.0 0.00 0.00 0.00 71 1016.7
20260508173053 68 34 0.0 3.0 0.00 0.00 0.00 75 1016.8
20260508171555 66 56 0.0 3.0 0.00 0.00 0.00 76 1016.9
20260508170057 65 32 1.0 5.0 0.00 0.00 0.00 78 1016.9
20260508164551 65 43 2.0 5.0 0.00 0.00 0.00 78 1017.0
20260508163050 64 352 0.0 3.0 0.00 0.00 0.00 80 1017.0
20260508161553 63 360 0.0 3.0 0.00 0.00 0.00 81 1017.0
20260508160056 63 0 1.0 4.0 0.00 0.00 0.00 81 1017.1
20260508154614 63 5 0.0 3.0 0.00 0.00 0.00 81 1017.0
20260508153055 63 5 0.0 3.0 0.00 0.00 0.00 82 1017.0
20260508151609 62 5 1.0 3.0 0.00 0.00 0.00 82 1017.1
20260508150059 62 0 0.0 3.0 0.00 0.00 0.00 82 1017.0
20260508144607 61 0 0.0 2.0 0.00 0.00 0.00 83 1017.0
20260508143107 61 345 1.0 3.0 0.00 0.00 0.00 83 1017.0
20260508141605 61 0 0.0 4.0 0.00 0.00 0.00 84 1017.0
20260508140055 61 77 0.0 3.0 0.00 0.00 0.00 84 1016.9
20260508134621 61 0 0.0 3.0 0.00 0.00 0.00 84 1016.7
20260508133101 61 96 1.0 4.0 0.00 0.00 0.00 84 1016.6
20260508131552 61 0 0.0 3.0 0.00 0.00 0.00 84 1016.5
20260508130050 61 103 2.0 4.0 0.00 0.00 0.00 84 1016.3
20260508124555 61 0 1.0 3.0 0.00 0.00 0.00 84 1016.3
20260508123056 61 122 0.0 3.0 0.00 0.00 0.00 84 1016.2
20260508121553 61 0 0.0 3.0 0.00 0.00 0.00 84 1016.2
20260508120058 61 0 1.0 4.0 0.00 0.00 0.00 84 1016.2
20260508114555 61 125 2.0 5.0 0.00 0.00 0.00 84 1016.1
20260508113055 61 123 0.0 3.0 0.00 0.00 0.00 84 1016.1
20260508111553 61 0 2.0 6.0 0.00 0.00 0.00 84 1016.1
20260508110052 61 97 2.0 7.0 0.00 0.00 0.00 84 1016.0
20260508104556 61 137 4.0 6.0 0.00 0.00 0.00 84 1015.9
20260508103101 61 111 1.0 4.0 0.00 0.00 0.00 85 1016.1
20260508101553 61 110 2.0 6.0 0.00 0.00 0.00 85 1016.1
20260508100112 61 148 1.0 4.0 0.00 0.00 0.00 85 1016.2
20260508094603 61 0 0.0 3.0 0.00 0.00 0.00 85 1016.2
20260508093050 61 173 0.0 6.0 0.00 0.00 0.00 84 1016.3
20260508091604 61 179 0.0 5.0 0.00 0.00 0.00 84 1016.3
20260508090115 61 154 3.0 6.0 0.00 0.00 0.00 84 1016.3
20260508084556 61 191 1.0 6.0 0.00 0.00 0.00 84 1016.4
20260508083055 61 160 2.0 5.0 0.00 0.00 0.00 84 1016.6
20260508081608 61 136 0.0 2.0 0.00 0.00 0.00 84 1016.7
20260508080057 61 136 1.0 7.0 0.00 0.00 0.00 84 1016.9
20260508074552 61 157 2.0 6.0 0.00 0.00 0.00 84 1016.9
20260508073106 61 148 3.0 8.0 0.00 0.00 0.00 84 1017.0
20260508071553 61 168 3.0 6.0 0.00 0.00 0.00 84 1017.1
20260508070054 61 0 0.0 4.0 0.00 0.00 0.00 84 1017.1
20260508064606 61 0 0.0 6.0 0.00 0.00 0.00 83 1017.1
20260508063106 61 214 2.0 6.0 0.00 0.00 0.00 83 1017.2
20260508061550 61 196 1.0 4.0 0.00 0.00 0.00 83 1017.2
20260508060105 61 197 1.0 4.0 0.00 0.00 0.00 83 1017.1
20260508054551 61 198 0.0 3.0 0.00 0.00 0.00 83 1017.1
20260508053055 61 0 1.0 5.0 0.00 0.00 0.00 84 1017.1
20260508051608 61 0 1.0 3.0 0.00 0.00 0.00 84 1017.2
20260508050051 61 218 0.0 3.0 0.00 0.00 0.00 83 1017.3
20260508044551 61 219 1.0 3.0 0.00 0.00 0.00 83 1017.1
20260508043055 61 217 2.0 4.0 0.00 0.00 0.00 84 1016.8
20260508041555 61 215 1.0 3.0 0.00 0.00 0.00 84 1016.6
20260508040056 61 217 2.0 4.0 0.00 0.00 0.00 83 1016.4
20260508034553 61 242 2.0 7.0 0.00 0.00 0.00 83 1016.2
20260508033059 61 248 2.0 5.0 0.00 0.00 0.00 83 1016.0
20260508031558 61 240 3.0 7.0 0.00 0.00 0.00 83 1015.7
20260508024617 61 245 1.0 4.0 0.00 0.00 0.00 83 1015.3
20260508023056 62 284 2.0 9.0 0.00 0.00 0.00 82 1015.2
20260508021604 62 192 2.0 5.0 0.00 0.00 0.00 82 1015.2
20260508020054 62 226 3.0 7.0 0.00 0.00 0.00 81 1015.1
20260508014554 63 243 2.0 6.0 0.00 0.00 0.00 80 1015.0
20260508013054 63 237 2.0 7.0 0.00 0.00 0.00 80 1015.0
20260508011554 63 294 3.0 8.0 0.00 0.00 0.00 80 1015.1
20260508010054 63 294 2.0 9.0 0.00 0.00 0.00 80 1015.1
20260508004555 65 288 2.0 8.0 0.00 0.00 0.00 78 1015.1
20260508003054 64 258 2.0 10.0 0.00 0.00 0.00 79 1015.1
20260508001552 64 246 4.0 9.0 0.00 0.00 0.00 79 1015.2
20260508000054 65 243 3.0 9.0 0.00 0.00 0.00 76 1015.3
20260507234553 64 294 2.0 11.0 0.00 0.00 0.00 78 1015.2
20260507233100 65 238 4.0 11.0 0.00 0.00 0.00 77 1015.1
20260507231559 65 260 4.0 15.0 0.00 0.00 0.00 77 1015.2